Weather History for Kenansville, NC

Change the Weather History Date:

Sunday, April 14, 2013

  Actual Average (KGSB) Record (KGSB)
Temperature  
Mean Temperature 60 °F -  
Max Temperature 78 °F 72 °F 87 °F (2006)
Min Temperature 42 °F 50 °F 39 °F (1999)
Degree Days  
Heating Degree Days 5    
Growing Degree Days 10 (Base 50)    
Moisture  
Dew Point 45 °F    
Average Humidity 64    
Maximum Humidity 99    
Minimum Humidity 19    
Precipitation  
Precipitation 0.00 in - - ()
Sea Level Pressure  
Sea Level Pressure 30.08 in    
Wind  
Wind Speed 0 mph (SE)    
Max Wind Speed 7 mph    
Max Gust Speed -    
Visibility 8 miles    
Events      
Averages and records for this station are not official NWS values.
T = Trace of Precipitation, MM = Missing Value Source: NWS Daily Summary

Daily Weather History Graph

Daily Weather History Graph

Search for Another Location

Airport:

Trip Planner

Search our weather history database for the weather conditions in past years. The results will help you decide how hot, cold, wet, or windy it might be!

Date:

Astronomy

Apr. 14, 2013 Rise Set
Actual Time 6:40 AM EDT 7:43 PM EDT
Civil Twilight 6:14 AM EDT 8:09 PM EDT
Nautical Twilight 5:44 AM EDT 8:40 PM EDT
Astronomical Twilight 5:12 AM EDT 9:12 PM EDT
Moon 9:23 AM EDT (4/14) 11:48 PM EDT (4/14)
Length of Visible Light 13h 54m
Length of Day
13h 02m
Waxing Crescent, 17% of the Moon is Illuminated
Apr 14
Waxing Crescent
Apr 18
First Quarter
Apr 25
Full
May 2
Last Quarter
May 9
New

Hourly Weather History & Observations

Time (EDT) Temp. Dew Point Humidity Pressure Visibility Wind Dir Wind Speed Gust Speed Precip Events Conditions
12:15 AM 51.8 °F 49.5 °F 92% 30.05 in 10.0 mi Calm Calm - N/A   Clear
12:35 AM 50.5 °F 49.1 °F 95% 30.05 in 5.0 mi Calm Calm - N/A   Clear
12:55 AM 50.0 °F 48.6 °F 95% 30.05 in 5.0 mi Calm Calm - N/A   Clear
1:15 AM 48.9 °F 47.7 °F 95% 30.05 in 5.0 mi Calm Calm - N/A   Clear
1:35 AM 48.2 °F 47.3 °F 97% 30.05 in 4.0 mi Calm Calm - N/A   Clear
1:55 AM 47.3 °F 46.4 °F 97% 30.05 in 4.0 mi Calm Calm - N/A   Clear
2:15 AM 46.8 °F 46.0 °F 97% 30.05 in 5.0 mi Calm Calm - N/A   Clear
2:35 AM 46.2 °F 45.5 °F 97% 30.05 in 4.0 mi Calm Calm - N/A   Clear
2:55 AM 46.0 °F 45.5 °F 98% 30.05 in 4.0 mi Calm Calm - N/A   Clear
3:15 AM 45.5 °F 44.6 °F 97% 30.05 in 4.0 mi Calm Calm - N/A   Clear
3:35 AM 45.0 °F 44.4 °F 98% 30.04 in 4.0 mi Calm Calm - N/A   Clear
3:55 AM 44.8 °F 44.2 °F 98% 30.04 in 4.0 mi Calm Calm - N/A   Clear
4:15 AM 44.6 °F 43.9 °F 97% 30.05 in 4.0 mi Calm Calm - N/A   Clear
4:35 AM 44.6 °F 44.1 °F 98% 30.06 in 5.0 mi Calm Calm - N/A   Clear
4:55 AM 44.1 °F 43.5 °F 98% 30.07 in 4.0 mi Calm Calm - N/A   Clear
5:15 AM 43.7 °F 43.0 °F 97% 30.07 in 4.0 mi Calm Calm - N/A   Clear
5:35 AM 43.2 °F 42.8 °F 99% 30.07 in 4.0 mi Calm Calm - N/A   Clear
5:55 AM 43.0 °F 42.8 °F 99% 30.07 in 3.0 mi Calm Calm - N/A   Clear
6:15 AM 42.8 °F 42.4 °F 99% 30.07 in 3.0 mi Calm Calm - N/A   Clear
6:35 AM 42.4 °F 42.1 °F 99% 30.08 in 4.0 mi Calm Calm - N/A   Clear
6:55 AM 42.8 °F 42.4 °F 99% 30.08 in 3.0 mi Calm Calm - N/A   Clear
7:15 AM 42.8 °F 42.4 °F 99% 30.09 in 2.5 mi Calm Calm - N/A   Clear
7:35 AM 44.8 °F 44.4 °F 99% 30.10 in 4.0 mi Calm Calm - N/A   Clear
7:55 AM 47.3 °F 46.4 °F 97% 30.11 in 4.0 mi Calm Calm - N/A   Clear
8:15 AM 51.8 °F 50.7 °F 96% 30.11 in 4.0 mi Calm Calm - N/A   Clear
8:35 AM 55.2 °F 52.7 °F 91% 30.11 in 7.0 mi Calm Calm - N/A   Clear
8:55 AM 59.0 °F 54.5 °F 85% 30.11 in 10.0 mi Calm Calm - N/A   Clear
9:15 AM 60.8 °F 54.3 °F 79% 30.11 in 10.0 mi Calm Calm - N/A   Clear
9:35 AM 63.5 °F 54.1 °F 72% 30.12 in 10.0 mi Calm Calm - N/A   Clear
9:55 AM 66.2 °F 53.1 °F 63% 30.12 in 10.0 mi Calm Calm - N/A   Clear
10:15 AM 67.8 °F 51.1 °F 55% 30.12 in 10.0 mi Calm Calm - N/A   Clear
10:35 AM 70.0 °F 50.0 °F 49% 30.12 in 10.0 mi Calm Calm - N/A   Clear
10:55 AM 71.8 °F 50.0 °F 46% 30.13 in 10.0 mi Calm Calm - N/A   Clear
11:15 AM 72.5 °F 47.1 °F 40% 30.12 in 10.0 mi Calm Calm - N/A   Clear
11:35 AM 73.4 °F 41.9 °F 32% 30.11 in 10.0 mi Calm Calm - N/A   Clear
11:55 AM 74.3 °F 42.1 °F 31% 30.11 in 10.0 mi Calm Calm - N/A   Clear
12:15 PM 74.8 °F 42.8 °F 32% 30.11 in 10.0 mi SE 4.6 mph - N/A   Clear
12:55 PM 75.7 °F 37.0 °F 25% 30.09 in 10.0 mi Calm Calm - N/A   Clear
1:15 PM 77.5 °F 37.0 °F 23% 30.10 in 10.0 mi Calm Calm - N/A   Clear
1:35 PM 77.4 °F 31.5 °F 19% 30.10 in 10.0 mi Calm Calm - N/A   Clear
1:55 PM 77.7 °F 35.2 °F 21% 30.09 in 10.0 mi Calm Calm - N/A   Clear
2:15 PM 77.9 °F 37.4 °F 23% 30.08 in 10.0 mi Calm Calm - N/A   Clear
2:35 PM 77.5 °F 37.0 °F 23% 30.08 in 10.0 mi Calm Calm - N/A   Clear
2:55 PM 78.3 °F 36.1 °F 22% 30.07 in 10.0 mi East 3.5 mph - N/A   Clear
3:15 PM 78.3 °F 37.8 °F 23% 30.06 in 10.0 mi Calm Calm - N/A   Clear
3:35 PM 77.9 °F 37.0 °F 23% 30.05 in 10.0 mi Calm Calm - N/A   Clear
3:55 PM 78.8 °F 39.4 °F 24% 30.05 in 10.0 mi Calm Calm - N/A   Clear
4:15 PM 77.9 °F 38.8 °F 25% 30.05 in 10.0 mi SE 4.6 mph - N/A   Clear
4:35 PM 77.2 °F 40.3 °F 27% 30.05 in 10.0 mi Calm Calm - N/A   Clear
4:55 PM 75.7 °F 46.2 °F 35% 30.05 in 10.0 mi SE 6.9 mph - N/A   Clear
5:15 PM 75.2 °F 44.1 °F 33% 30.06 in 10.0 mi Calm Calm - N/A   Clear
5:35 PM 74.3 °F 42.8 °F 32% 30.07 in 10.0 mi SSE 5.8 mph - N/A   Clear
5:55 PM 73.4 °F 42.6 °F 33% 30.08 in 10.0 mi Calm Calm - N/A   Clear
6:15 PM 72.5 °F 43.2 °F 35% 30.09 in 10.0 mi Calm Calm - N/A   Clear
6:35 PM 71.6 °F 41.4 °F 33% 30.10 in 10.0 mi Calm Calm - N/A   Clear
6:55 PM 70.3 °F 43.5 °F 38% 30.10 in 10.0 mi Calm Calm - N/A   Clear
7:15 PM 68.9 °F 45.9 °F 44% 30.10 in 10.0 mi Calm Calm - N/A   Clear
7:35 PM 67.3 °F 47.5 °F 49% 30.10 in 10.0 mi Calm Calm - N/A   Clear
7:55 PM 64.0 °F 50.9 °F 62% 30.09 in 10.0 mi Calm Calm - N/A   Clear
8:15 PM 63.5 °F 50.4 °F 62% 30.10 in 10.0 mi Calm Calm - N/A   Clear
8:35 PM 64.4 °F 48.6 °F 56% 30.10 in 10.0 mi Calm Calm - N/A   Scattered Clouds
8:55 PM 64.0 °F 48.6 °F 57% 30.09 in 10.0 mi Calm Calm - N/A   Scattered Clouds
9:15 PM 63.5 °F 51.1 °F 64% 30.10 in 10.0 mi Calm Calm - N/A   Scattered Clouds
9:35 PM 63.7 °F 48.7 °F 58% 30.09 in 10.0 mi Calm Calm - N/A   Scattered Clouds
9:55 PM 63.5 °F 48.7 °F 59% 30.08 in 10.0 mi Calm Calm - N/A   Clear
10:15 PM 63.5 °F 48.6 °F 58% 30.07 in 10.0 mi Calm Calm - N/A   Clear
10:35 PM 63.5 °F 49.1 °F 59% 30.07 in 10.0 mi Calm Calm - N/A   Scattered Clouds
10:55 PM 63.5 °F 50.2 °F 62% 30.08 in 10.0 mi Calm Calm - N/A   Scattered Clouds
11:15 PM 63.9 °F 52.2 °F 66% 30.11 in 10.0 mi Calm Calm - N/A   Mostly Cloudy
11:35 PM 63.9 °F 53.6 °F 69% 30.09 in 10.0 mi Calm Calm - N/A   Scattered Clouds
11:55 PM 63.9 °F 54.1 °F 71% 30.08 in 10.0 mi Calm Calm - N/A   Scattered Clouds